Location: Newark
(29.9790°N, 31.1340°E)
Time: 06:32:32
(UTC+00:00)

Hubble Space Telescope - Visible Passes

Search period start: 07 December 2019 00:00
Search period end: 17 December 2019 00:00
Orbit: 536 x 540 km, 28.5° (Epoch: 06 December)

Date Brightness Start Highest point End Pass type
(mag) Time Alt. Az. Time Alt. Az. Time Alt. Az.
11 Dec 3.1 04:11:09 10° SSW 04:14:26 23° SSE 04:17:43 10° ESE visible
12 Dec 2.7 04:00:13 10° SW 04:03:45 28° SSE 04:07:19 10° E visible
13 Dec 3.7 02:12:09 10° SSE 02:12:24 10° SSE 02:13:08 10° SE visible
13 Dec 2.3 03:49:22 10° SW 03:53:06 33° SSE 03:56:51 10° E visible
14 Dec 3.7 02:02:51 12° SE 02:02:51 12° SE 02:03:49 10° ESE visible
14 Dec 1.9 03:38:35 10° SW 03:42:28 40° SSE 03:46:21 10° E visible
15 Dec 4.0 01:53:23 12° ESE 01:53:23 12° ESE 01:53:47 10° ESE visible
15 Dec 1.6 03:28:44 16° SW 03:31:50 47° SSE 03:35:49 10° E visible
16 Dec 1.3 03:19:08 26° SW 03:21:13 54° SSE 03:25:15 10° E visible
